Terminal Aerodrome Forecast
Issued by NWS Albany, NY

Home | Current Version | Previous Version | Text Only | Print | Product List | Glossary On
Versions: 1 2 3 4 5 6 7 8 9 10 11 12 13 14 15 16 17 18 19 20 21 22 23 24 25 26 27 28 29 30 31 32 33 34 35 36 37 38 39 40 41 42 43 44 45 46 47 48 49 50
000
FTUS41 KALY 101711 AAA
TAFGFL
TAF AMD
KGFL 101711Z 1017/1112 21006KT P6SM OVC050
      TEMPO 1017/1018 1/2SM -RA OVC015
     FM101800 24008G16KT P6SM OVC025
     FM102000 27010G18KT P6SM OVC025
     FM110000 28008KT P6SM OVC035
     FM110600 34005KT P6SM BKN040 BKN250=

USA.gov is the U.S. government's official web portal to all federal, state and local government web resources and services.